Regional Weather Roundup
Issued by NWS State College, PA

Home | Current Version | Previous Version | Text Only | Print | Product List | Glossary On
Versions: 1 2 3 4 5 6 7 8 9 10 11 12 13 14 15 16 17 18 19 20 21 22 23 24 25 26 27 28 29 30 31 32 33 34 35 36 37 38 39 40 41 42 43 44 45 46 47 48 49 50
000
ASUS41 KCTP 260910
RWRCTP

REGIONAL WEATHER ROUNDUP
NATIONAL WEATHER SERVICE STATE COLLEGE PA
500 AM EDT WED JUL 26 2017

Note: "fair" indicates few or no clouds below 12,000 feet with no
significant weather and/or obstructions to visibility.

* = STATION THAT DOES NOT REPORT PRECIPITATION /E.G. RAIN...SNOW...ETC/
    THUNDER OR FOG.

PAZ002>004-007>009-013>016-020>023-029>032-261000-
WESTERN PENNSYLVANIA

CITY           SKY/WX    TMP DP  RH WIND       PRES   REMARKS
ERIE           CLEAR     57  53  86 S5        30.20S
MEADVILLE      CLEAR     56  54  93 CALM      30.21S
FRANKLIN*      CLEAR     54  48  82 E3        30.22R
NEW CASTLE     FAIR      55  55 100 CALM      30.21R
BEAVER COUNTY  NOT AVBL
BUTLER*        CLEAR     55  54  94 CALM      30.20R
PITTSBURGH INT CLEAR     59  57  93 CALM      30.19R
PITTSBURGH     CLEAR     60  57  89 SE3       30.18S
INDIANA*       NOT AVBL
LATROBE        FOG       57  57 100 CALM      30.20S VSB 1/2
WASHINGTON CO* CLOUDY    54  54 100 CALM      30.19R VSB<1/4
$$

PAZ004>006-010>012-017>019-024>028-033>037-041-042-045-046-049>053-261000-
CENTRAL PENNSYLVANIA

CITY           SKY/WX    TMP DP  RH WIND       PRES   REMARKS
BRADFORD       FOG       47  47 100 CALM      30.23F VSB 1/4
DUBOIS         CLEAR     52  50  93 E5        30.22S FOG
CLEARFIELD     PTCLDY    50  50 100 N5        30.23F FOG
JOHNSTOWN      CLEAR     56  55  97 SE3       30.23R
ALTOONA        MOCLDY    53  53 100 CALM      30.24R FOG
STATE COLLEGE  CLEAR     56  55  97 CALM      30.23S
WILLIAMSPORT   MOCLDY    58  56  93 N3        30.22F
SELINSGROVE    CLEAR     56  56 100 CALM      30.23S
FT INDIANTOWN  PTCLDY    61  59  95 CALM      30.22R
CAPITAL CITY   CLOUDY    63  58  83 CALM      30.21R
HARRISBURG     MOCLDY    65  60  84 NW5       30.20R
YORK           PTCLDY    59  59 100 CALM      30.21S
$$

PAZ038>040-043-044-047-048-054-055-060>062-067>071-261000-
EASTERN PENNSYLVANIA

CITY           SKY/WX    TMP DP  RH WIND       PRES   REMARKS
SCRANTON       CLOUDY    62  60  93 CALM      30.24R
MOUNT POCONO   CLOUDY    57  57 100 E6        30.26R
ALLENTOWN      CLOUDY    65  60  84 E7        30.22S
QUAKERTOWN*    CLOUDY    64  63  94 SE3       30.23S
READING        LGT RAIN  65  65 100 E3        30.21R FOG
LANCASTER      CLOUDY    68  65  90 NE3       30.21R
COATESVILLE    CLOUDY    64  64 100 CALM      30.23R
POTTSTOWN      CLOUDY    65  63  93 CALM      30.23R
BLUE BELL      CLOUDY    63  61  94 E3        30.23R
DOYLESTOWN     CLOUDY    64  62  93 CALM      30.21R
WILLOW GROVE   NOT AVBL
NORTH PHILA    CLOUDY    68  63  84 NE5       30.22S
PHILADELPHIA   CLOUDY    68  62  81 NE5       30.21R
$$




USA.gov is the U.S. government's official web portal to all federal, state and local government web resources and services.